Flag for U.S.A. Weather past 2 weeks in Charlottesville, Virginia, U.S.A.

Now
30 °F

Sunny.


Feels Like: 30 °F
Forecast: 27 / 42 °F
Wind: No wind

Location: Charlottesville-Albemarle Airport

Current Time: Dec 20, 2014 at 9:35:50 AM

Latest Report: Dec 20, 2014 at 8:53 AM


Visibility: 10 mi

Pressure: 30.29 "Hg

Humidity: 79%

Dew point: 24 °F

Location of CharlottesvilleLocation

Historic Weather in Charlottesville — Graph

°F

Charlottesville temperature yesterday

Maximum temperature yesterday: 44 °F (at 1:53 PM)
Minimum temperature yesterday: 26 °F (at 7:53 AM)
Average temperature yesterday: 35 °F

Past Weeks' High & Low Weather Summary

 TemperatureHumidityPressure
High60 °F (Dec 14, 2:53 PM)97% (Dec 6, 5:00 PM)30.55 "Hg (Dec 6, 5:00 PM)
Low25 °F (Dec 20, 4:53 AM)16% (Dec 11, 2:53 PM)29.85 "Hg (Dec 16, 3:53 PM)
Average41 °F62%30.10 "Hg
* Reported Dec 5 8:00 AM — Dec 20 7:53 AM, Charlottesville, Weather by CustomWeather, © 2014

Note: Actual official high and low records may vary slightly from our data, if they occured in-between our weather recording intervals... More about our weather records

Advertising

Charlottesville weather history for previous 24 hours

 ConditionsComfort  
Time TempWeatherWind HumidityBarometerVisibility
7:53 AM
Dec 20
28 °FSunny.7 mph81%30.31 "Hg10 mi
6:53 AM27 °FClear.3 mph81%30.29 "Hg10 mi
5:53 AM26 °FClear.3 mph81%30.27 "Hg10 mi
4:53 AM25 °FClear.No wind85%30.25 "Hg10 mi
3:53 AM27 °FClear.3 mph78%30.24 "Hg10 mi
2:53 AM28 °FClear.3 mph78%30.25 "Hg10 mi
1:53 AM27 °FClear.No wind78%30.24 "Hg10 mi
12:53 AM27 °FClear.No wind78%30.24 "Hg10 mi
11:53 PM
Dec 19
29 °FClear.3 mph72%30.24 "Hg10 mi
10:53 PM31 °FClear.No wind67%30.24 "Hg10 mi
9:53 PM32 °FClear.No wind66%30.24 "Hg10 mi
8:53 PM33 °FClear.5 mph63%30.22 "Hg10 mi
7:53 PM34 °FClear.No wind61%30.22 "Hg10 mi
6:53 PM35 °FClear.3 mph59%30.20 "Hg10 mi
5:53 PM36 °FClear.5 mph57%30.19 "Hg10 mi
4:53 PM39 °FSunny.7 mph50%30.15 "Hg10 mi
3:53 PM42 °FSunny.5 mph47%30.14 "Hg10 mi
2:53 PM44 °FSunny.6 mph43%30.13 "Hg10 mi
1:53 PM44 °FSunny.9 mph45%30.11 "Hg10 mi
12:53 PM43 °FSunny.9 mph47%30.11 "Hg10 mi
11:53 AM42 °FSunny.6 mph49%30.14 "Hg10 mi
10:53 AM40 °FSunny.3 mph53%30.17 "Hg10 mi
9:53 AM36 °FSunny.3 mph64%30.18 "Hg10 mi
Weather by CustomWeather, © 2014

See weather overviewHow to use our weather pages